Elkins, WV

12:59 PM EDT on May 24, 2017 (GMT -0400)
Elkins-Randolph County

Weather History for KEKN - December, 2013

Change the Weather History Date:

Thursday, December 26, 2013

  Actual Average Record
Temperature  
Mean Temperature 31 °F 30 °F  
Max Temperature 38 °F 40 °F 65 °F (2015)
Min Temperature 23 °F 20 °F -11 °F (1980)
Degree Days  
Heating Degree Days 34 35  
Month to date heating degree days 752 833  
Since 1 July heating degree days 2047 2117  
Cooling Degree Days 0 0  
Month to date cooling degree days 0 0  
Year to date cooling degree days 533 475  
Moisture  
Dew Point 18 °F    
Average Humidity 59    
Maximum Humidity 78    
Minimum Humidity 40    
Precipitation  
Precipitation 0.01 in 0.09 in 0.99 in (1930)
Month to date precipitation 5.17 2.77  
Year to date precipitation 44.91 45.44  
Snow  
Snow 0.00 in - - ()
Month to date snowfall 9.0  
Since 1 September snowfall 15.9  
Snow Depth -    
Sea Level Pressure  
Sea Level Pressure 30.29 in    
Wind  
Wind Speed 7 mph (WSW)    
Max Wind Speed 21 mph    
Max Gust Speed 29 mph    
Visibility 9 miles    
Events Snow    
T = Trace of Precipitation, MM = Missing Value Source: NWS Daily Summary

Daily Weather History Graph

Daily Weather History Graph

Search for Another Location

Airport or City:

Trip Planner

Search our weather history database for the weather conditions in past years. The results will help you decide how hot, cold, wet, or windy it might be!

Date:

Astronomy

Dec. 26, 2013 Rise Set
Actual Time 7:36 AM EST 5:03 PM EST
Civil Twilight 7:06 AM EST 5:33 PM EST
Nautical Twilight 6:33 AM EST 6:07 PM EST
Astronomical Twilight 6:00 AM EST 6:39 PM EST
Moon 1:05 AM EST (12/26) 12:36 PM EST (12/26)
Length of Visible Light 10h 27m
Length of Day
9h 27m
Last Quarter, 38% of the Moon is Illuminated
Dec 26
Last Quarter
Jan 1
New
Jan 7
First Quarter
Jan 15
Full
Jan 24
Last Quarter

Hourly Weather History & Observations

Time (EST) Temp. Windchill Dew Point Humidity Pressure Visibility Wind Dir Wind Speed Gust Speed Precip Events Conditions
12:51 AM 30.9 °F - 12.9 °F 47% 30.25 in 10.0 mi Calm Calm - N/A   Overcast
1:51 AM 32.0 °F 28.7 °F 15.1 °F 50% 30.23 in 10.0 mi SE 3.5 mph - N/A   Overcast
2:51 AM 33.1 °F 26.9 °F 12.9 °F 43% 30.22 in 10.0 mi SSE 6.9 mph - N/A   Overcast
3:51 AM 34.0 °F 26.0 °F 16.0 °F 48% 30.21 in 10.0 mi SW 10.4 mph - N/A   Overcast
4:51 AM 34.0 °F 26.6 °F 19.0 °F 54% 30.22 in 9.0 mi WSW 9.2 mph - 0.00 in Snow Light Snow
5:32 AM 30.2 °F 23.4 °F 24.8 °F 80% 30.18 in 4.0 mi WSW 6.9 mph - 0.00 in Snow Light Snow
5:51 AM 30.0 °F 26.5 °F 25.0 °F 82% 30.26 in 5.0 mi SW 3.5 mph - 0.00 in Snow Light Snow
6:17 AM 30.2 °F 26.7 °F 24.8 °F 80% 30.17 in 9.0 mi SE 3.5 mph - 0.01 in Snow Light Snow
6:51 AM 30.9 °F 24.3 °F 25.0 °F 79% 30.25 in 10.0 mi SSW 6.9 mph - 0.01 in   Overcast
7:51 AM 33.1 °F 25.5 °F 21.9 °F 64% 30.25 in 10.0 mi SW 9.2 mph - N/A   Overcast
8:51 AM 34.0 °F 23.0 °F 21.0 °F 59% 30.27 in 10.0 mi WSW 18.4 mph 27.6 mph N/A   Overcast
9:51 AM 33.1 °F 24.9 °F 21.0 °F 61% 30.30 in 10.0 mi WSW 10.4 mph 23.0 mph 0.00 in   Overcast
10:51 AM 33.1 °F 23.9 °F 23.0 °F 66% 30.32 in 8.0 mi West 12.7 mph - 0.00 in Snow Light Snow
11:00 AM 32.0 °F 24.8 °F 23.0 °F 69% 30.24 in 5.0 mi West 8.1 mph 18.4 mph 0.00 in Snow Light Snow
11:51 AM 32.0 °F 23.6 °F 24.1 °F 73% 30.32 in 9.0 mi West 10.4 mph 17.3 mph 0.00 in Snow Light Snow
12:51 PM 34.0 °F 23.8 °F 19.9 °F 56% 30.30 in 10.0 mi West 16.1 mph 21.9 mph 0.00 in   Mostly Cloudy
1:51 PM 36.0 °F 28.5 °F 19.0 °F 50% 30.30 in 10.0 mi West 10.4 mph 20.7 mph N/A   Clear
2:51 PM 37.0 °F 28.9 °F 16.0 °F 42% 30.30 in 10.0 mi West 12.7 mph 20.7 mph N/A   Clear
3:51 PM 37.0 °F 30.4 °F 15.1 °F 41% 30.31 in 10.0 mi WNW 9.2 mph - N/A   Clear
4:51 PM 34.0 °F 31.0 °F 14.0 °F 44% 30.32 in 10.0 mi West 3.5 mph - N/A   Clear
5:51 PM 32.0 °F - 14.0 °F 48% 30.34 in 10.0 mi Calm Calm - N/A   Clear
6:51 PM 32.0 °F - 14.0 °F 48% 30.36 in 10.0 mi Calm Calm - N/A   Clear
7:51 PM 32.0 °F 27.5 °F 14.0 °F 48% 30.38 in 10.0 mi SW 4.6 mph - N/A   Clear
8:51 PM 30.9 °F 27.5 °F 14.0 °F 50% 30.39 in 10.0 mi Variable 3.5 mph - N/A   Clear
9:51 PM 28.0 °F - 14.0 °F 56% 30.40 in 10.0 mi Calm Calm - N/A   Clear
10:51 PM 28.9 °F - 14.0 °F 54% 30.40 in 10.0 mi Calm Calm - N/A   Clear
11:51 PM 23.0 °F - 15.1 °F 72% 30.42 in 10.0 mi Calm Calm - N/A   Clear